Tracking 20037 objects as of 17-Nov-2019
Live streaming from Space Station
objects crossing your sky now

SL-8 DEB

Track SL-8 DEB now!
10-day predictions


NORAD ID: 39840
Int'l Code: 1991-009DY
Perigee: 1,019.4 km
Apogee: 1,183.6 km
Inclination: 73.8 °
Period: 107.1 minutes
Semi major axis: 7472 km
RCS: 0.0175 m2 (small)
Launch date: February 12, 1991
Source: Commonwealth of Independent States (former USSR) (CIS)
Launch site: PLESETSK MISSILE AND SPACE COMPLEX (PKMTR)

Note: This is SATELLITE DEBRIS
aabbcc
Your satellite tracking list
Your tracking list is empty




NASA's NSSDC Master Catalog

Two Line Element Set (TLE):
1 39840U 91009DY  19320.54929579  .00000680  00000-0  11692-2 0  9993
2 39840  73.8222  17.8125 0109894 170.0697 258.9898 13.44018770806373
Source of the keplerian elements: AFSPC